Location: Bishop�s Knoyle
(51.0728°N, 2.1714°W)
Time: 00:22:28
(UTC+00:00)

ISS - Pass Details

Date: 26 September 2021
Orbit: 417 x 423 km, 51.6° (Epoch: 24 October)

Event Time Altitude Azimuth Distance (km) Brightness Sun altitude
Rises 18:54:52 0° 270° (W) 2,362 2.1 -9.8°
Reaches altitude 10° 18:56:58 10° 271° (W) 1,500 0.6 -10.1°
Maximum altitude 19:00:20 79° 357° (N) 433 -3.7 -10.7°
Enters shadow 19:02:51 17° 85° (E) 1,157 -2.1 -11.0°
